Weather History for Adana, Turkey

Change the Weather History Date:

Wednesday, January 9, 2013

  Actual Average Record
Temperature  
Mean Temperature 40 °F -  
Max Temperature 48 °F 58 °F 64 °F (2001)
Min Temperature 32 °F 39 °F 30 °F (2007)
Degree Days  
Heating Degree Days 25    
Moisture  
Dew Point 15 °F    
Average Humidity 37    
Maximum Humidity 65    
Minimum Humidity 25    
Precipitation  
Precipitation 0.00 in 0.14 in - ()
Sea Level Pressure  
Sea Level Pressure 29.76 in    
Wind  
Wind Speed 8 mph ()    
Max Wind Speed 22 mph    
Max Gust Speed 33 mph    
Visibility 6.1 miles    
Events      
Averages and records for this station are not official NWS values.
T = Trace of Precipitation, MM = Missing Value Source: Averaged Metar Reports

Daily Weather History Graph

Daily Weather History Graph

Search for Another Location

Airport:

Trip Planner

Search our weather history database for the weather conditions in past years. The results will help you decide how hot, cold, wet, or windy it might be!

Date:

Astronomy

Jan. 09, 2013 Rise Set
Actual Time 6:52 AM EET 4:39 PM EET
Civil Twilight 6:23 AM EET 5:08 PM EET
Nautical Twilight 5:51 AM EET 5:40 PM EET
Astronomical Twilight 5:20 AM EET 6:11 PM EET
Moon 4:09 AM EET (1/9) 2:20 PM EET (1/9)
Length of Visible Light 10h 44m
Length of Day
9h 47m
Waning Crescent, 8% of the Moon is Illuminated
Jan 9
Waning Crescent
Jan 11
New
Jan 19
First Quarter
Jan 27
Full
Feb 3
Last Quarter

Hourly Weather History & Observations

Time (EET) Temp. Windchill Dew Point Humidity Pressure Visibility Wind Dir Wind Speed Gust Speed Precip Events Conditions
12:20 AM 33.8 °F 29.6 °F 23.0 °F 65% 29.68 in 6.2 mi NNE 4.6 mph - N/A   Partly Cloudy
12:50 AM 37.4 °F 32.8 °F 21.2 °F 52% 29.68 in 6.2 mi NNE 5.8 mph - N/A   Partly Cloudy
1:20 AM 39.2 °F 33.6 °F 17.6 °F 42% 29.68 in 6.2 mi North 8.1 mph - N/A   Partly Cloudy
1:50 AM 33.8 °F 27.7 °F 21.2 °F 60% 29.68 in 6.2 mi NNE 6.9 mph - N/A   Partly Cloudy
2:20 AM 35.6 °F 31.7 °F 23.0 °F 60% 29.68 in 6.2 mi North 4.6 mph - N/A   Partly Cloudy
2:50 AM 37.4 °F 33.8 °F 23.0 °F 56% 29.68 in 6.2 mi North 4.6 mph - N/A   Partly Cloudy
3:20 AM 35.6 °F 32.8 °F 21.2 °F 56% 29.68 in 6.2 mi North 3.5 mph - N/A   Partly Cloudy
3:50 AM 33.8 °F 30.8 °F 19.4 °F 56% 29.68 in 6.2 mi NE 3.5 mph - N/A   Partly Cloudy
4:20 AM 32.0 °F 28.7 °F 21.2 °F 64% 29.68 in 6.2 mi North 3.5 mph - N/A   Partly Cloudy
4:50 AM 37.4 °F 32.8 °F 17.6 °F 45% 29.68 in 6.2 mi North 5.8 mph - N/A   Partly Cloudy
5:20 AM 37.4 °F 33.8 °F 15.8 °F 41% 29.68 in 6.2 mi North 4.6 mph - N/A   Partly Cloudy
5:50 AM 35.6 °F 32.8 °F 15.8 °F 44% 29.71 in 6.2 mi North 3.5 mph - N/A   Partly Cloudy
6:20 AM 37.4 °F 32.8 °F 14.0 °F 38% 29.71 in 6.2 mi North 5.8 mph - N/A   Partly Cloudy
6:50 AM 37.4 °F 31.4 °F 14.0 °F 38% 29.71 in 6.2 mi North 8.1 mph - N/A   Scattered Clouds
7:20 AM 37.4 °F 31.4 °F 15.8 °F 41% 29.71 in 3.1 mi North 8.1 mph - N/A   Haze
7:50 AM 39.2 °F 35.9 °F 15.8 °F 39% 29.74 in 6.2 mi NNW 4.6 mph - N/A   Partly Cloudy
8:20 AM 41.0 °F 37.1 °F 15.8 °F 36% 29.74 in 6.2 mi NNW 5.8 mph - N/A   Partly Cloudy
8:50 AM 42.8 °F 38.0 °F 14.0 °F 31% 29.74 in 6.2 mi NNW 8.1 mph - N/A   Partly Cloudy
9:20 AM 42.8 °F 37.5 °F 14.0 °F 31% 29.74 in 6.2 mi NNW 9.2 mph - N/A   Partly Cloudy
9:50 AM 44.6 °F 38.4 °F 12.2 °F 27% 29.74 in 6.2 mi NW 12.7 mph - N/A   Partly Cloudy
10:20 AM 46.4 °F 40.1 °F 14.0 °F 27% 29.74 in 6.2 mi NW 15.0 mph - N/A   Partly Cloudy
10:50 AM 46.4 °F 39.5 °F 12.2 °F 25% 29.74 in 6.2 mi NW 17.3 mph - N/A   Partly Cloudy
11:20 AM 46.4 °F 39.2 °F 14.0 °F 27% 29.74 in 6.2 mi NW 18.4 mph - N/A   Partly Cloudy
11:50 AM 48.2 °F - 14.0 °F 25% 29.71 in 6.2 mi NW 19.6 mph - N/A   Scattered Clouds
12:20 PM 48.2 °F - 15.8 °F 27% 29.71 in 6.2 mi NW 16.1 mph - N/A   Scattered Clouds
12:50 PM 46.4 °F 39.5 °F 14.0 °F 27% 29.71 in 6.2 mi NW 17.3 mph - N/A   Scattered Clouds
1:20 PM 46.4 °F 38.5 °F 12.2 °F 25% 29.74 in 6.2 mi NW 21.9 mph - N/A   Mostly Cloudy
1:50 PM 44.6 °F 36.1 °F 12.2 °F 27% 29.74 in 6.2 mi NW 21.9 mph - N/A   Mostly Cloudy
2:20 PM 44.6 °F 36.4 °F 12.2 °F 27% 29.74 in 6.2 mi NW 20.7 mph - N/A   Mostly Cloudy
2:50 PM 42.8 °F 34.3 °F 12.2 °F 29% 29.77 in 6.2 mi NW 19.6 mph - N/A   Mostly Cloudy
3:20 PM 42.8 °F 34.3 °F 10.4 °F 27% 29.77 in 6.2 mi NW 19.6 mph - N/A   Mostly Cloudy
3:50 PM 41.0 °F 32.2 °F 12.2 °F 31% 29.80 in 6.2 mi NW 18.4 mph 33.4 mph N/A   Mostly Cloudy
4:20 PM 41.0 °F 31.9 °F 10.4 °F 29% 29.80 in 6.2 mi NW 19.6 mph - N/A   Mostly Cloudy
4:50 PM 41.0 °F 32.2 °F 12.2 °F 31% 29.80 in 6.2 mi NW 18.4 mph - N/A   Mostly Cloudy
5:20 PM 41.0 °F 33.5 °F 12.2 °F 31% 29.80 in 6.2 mi NW 13.8 mph - N/A   Mostly Cloudy
5:50 PM 41.0 °F 32.8 °F 12.2 °F 31% 29.83 in 6.2 mi NW 16.1 mph - N/A   Scattered Clouds
6:20 PM 41.0 °F 33.1 °F 10.4 °F 29% 29.83 in 6.2 mi NW 15.0 mph - N/A   Scattered Clouds
6:50 PM 41.0 °F 33.1 °F 12.2 °F 31% 29.83 in 6.2 mi NW 15.0 mph - N/A   Scattered Clouds
7:20 PM 39.2 °F 34.2 °F 12.2 °F 33% 29.86 in 6.2 mi WNW 6.9 mph - N/A   Scattered Clouds
7:50 PM 41.0 °F 34.7 °F 10.4 °F 29% 29.86 in 6.2 mi WNW 10.4 mph - N/A   Scattered Clouds
8:20 PM 41.0 °F 35.2 °F 10.4 °F 29% 29.86 in 6.2 mi WNW 9.2 mph - N/A   Scattered Clouds
8:50 PM 41.0 °F 34.7 °F 12.2 °F 31% 29.86 in 6.2 mi NW 10.4 mph - N/A   Scattered Clouds
9:20 PM 41.0 °F 35.2 °F 12.2 °F 31% 29.86 in 6.2 mi NW 9.2 mph - N/A   Scattered Clouds
9:50 PM 41.0 °F 37.1 °F 12.2 °F 31% 29.86 in 6.2 mi NNW 5.8 mph - N/A   Partly Cloudy
10:20 PM 37.4 °F - 15.8 °F 41% 29.86 in 6.2 mi Variable 1.2 mph - N/A   Scattered Clouds
10:50 PM 35.6 °F 31.7 °F 17.6 °F 48% 29.89 in 6.2 mi SE 4.6 mph - N/A   Scattered Clouds
11:20 PM 37.4 °F 33.8 °F 15.8 °F 41% 29.89 in 6.2 mi Variable 4.6 mph - N/A   Scattered Clouds
11:50 PM 35.6 °F - 17.6 °F 48% 29.89 in 6.2 mi Variable 2.3 mph - N/A   Scattered Clouds